Weather in Marfovka

Russia / Republic of Crimea     45°11′53″N   36°05′26″E
temp.,
°C
wind,
m/s
gust,
m/s
humid.,
%
clouds,
%
prec.,
mm/h
press.,
hPa
HPBL,
m
2 march, tue
tue200:00+1n34888 0.0 102986
03:000n23904 0.0 103025
06:000nnw11900 0.0 102922
09:00+3nw22770 0.0 1030234
12:00+5nw44616 0.0 1030991
15:00+6wnw565524 0.0 10281060
18:00+5sw47670 0.0 1026320
21:00+3w6116944 0.0 1025487
3 march, wed
wed300:00+2w6127470 0.0 1023409
03:00+2wsw5147845 0.0 1022496
06:00+4wnw8138579 0.0 1020809
09:00+3nw7108190 0.1 1022864
12:00+5nnw8106689 0.3 10241207
15:00+6nnw796175 0.3 10251015
18:00+4nnw48650 0.0 1026696
21:00+2wnw23820 0.0 102834
4 march, thu
thu400:00+2wnw12800 0.0 102822
03:00+1w22820 0.0 102822
06:000wsw22740 0.0 102722
09:00+4ssw23600 0.0 1027197
12:00+8sw66560 0.0 10261203
15:00+8ssw78570 0.0 10241056
18:00+6ssw610710 0.0 1022709
21:00+4ssw611800 0.0 1021494
5 march, fri
fri500:00+4ssw611780 0.0 1021411
03:00+3ssw612815 0.0 1020438
06:00+3ssw612850 0.0 1019374
09:00+6ssw812750 0.0 1019609
12:00+8ssw912680 0.0 1018740
15:00+9ssw1013690 0.0 1017704
18:00+7ssw9147471 0.0 1015579
21:00+6ssw8157771 0.0 1016556
6 march, sat
sat600:00+7ssw8167347 0.0 1015565
03:00+7ssw7157574 0.0 1014469
06:00+7ssw61280100 0.0 1014282
09:00+8w3582100 0.0 1014229
12:00+7nnw6785100 0.0 1015436
15:00+4n7989100 0.0 1015429
18:00+1n91391100 0.9 1017709
21:00+2nnw6967100 1.4 10191131